This demonstration page uses our WeatherBlox Daily Observations layout. Learn more.

Left ArrowRight Arrow

Hourly Observations for August 24, 2015

Temp ( °F °C ) Dew Point ( °F °C ) Humidity (%) Winds ( mph kmh ) Pressure ( in mb ) Visibility ( mi km ) Precip ( " mm )
12:51 am 00:51 Mostly Clear 75 23.9 61 16.1 62 62 SSE 13 20 29.97 1015 10 16 0.00 0.00
1:51 am 01:51 Mostly Clear 74 23.3 62 16.7 67 67 SSE 9 15 29.96 1015 10 16 0.00 0.00
2:51 am 02:51 Clear 74 23.3 62 16.7 67 67 E 7 11 29.96 1015 10 16 0.00 0.00
3:51 am 03:51 Clear 73 22.8 62 16.7 69 69 SSE 7 11 29.96 1015 10 16 0.00 0.00
4:51 am 04:51 Clear 72 22.2 61 16.1 68 68 S 6 9 29.96 1015 10 16 0.00 0.00
5:51 am 05:51 Sunny 72 22.2 61 16.1 68 68 SSE 7 11 29.97 1015 10 16 0.00 0.00
6:51 am 06:51 Sunny 74 23.3 61 16.1 64 64 SSE 9 15 29.99 1016 10 16 0.00 0.00
7:51 am 07:51 Sunny 77 25 61 16.1 58 58 SE 8 13 30.00 1016 10 16 0.00 0.00
8:51 am 08:51 Sunny 81 27.2 60 15.6 49 49 S 7 11 29.99 1016 10 16 0.00 0.00
9:51 am 09:51 Sunny 83 28.3 59 15 44 44 SSE 10 17 29.98 1015 10 16 0.00 0.00
10:51 am 10:51 Sunny 88 31.1 58 14.4 36 36 SSE 10 17 29.96 1015 10 16 0.00 0.00
11:51 am 11:51 Sunny 90 32.2 57 13.9 33 33 SSE 10 17 29.93 1014 10 16 0.00 0.00
12:51 pm 12:51 Mostly Sunny 95 35 56 13.3 27 27 SSE 15 24 29.90 1012 10 16 0.00 0.00
1:51 pm 13:51 Sunny 94 34.4 55 12.8 27 27 SSE 12 19 29.86 1011 10 16 0.00 0.00
2:51 pm 14:51 Sunny 94 34.4 55 12.8 27 27 VRB 5 7 29.83 1010 10 16 0.00 0.00
3:51 pm 15:51 Mostly Cloudy 96 35.6 56 13.3 26 26 VRB 6 9 29.80 1009 10 16 0.00 0.00
4:51 pm 16:51 Mostly Sunny 97 36.1 56 13.3 25 25 ESE 8 13 29.80 1009 10 16 0.00 0.00
5:51 pm 17:51 Mostly Cloudy with Light Rain 87 30.6 61 16.1 42 42 SSE 21 33 29.83 1010 10 16 0.00 0.03
6:42 pm 18:42 Cloudy with Thunderstorms 85 29.4 59 15 42 42 S 21 33 29.77 1008 10 16 0.00 0.03
6:51 pm 18:51 Mostly Cloudy with Thunderstorms 85 29.4 59 15 42 42 S 23 37 29.85 1011 10 16 0.00 0.03
7:32 pm 19:32 Mostly Cloudy with Nearby Thunderstorms 77 25 62 16.7 60 60 SW 5 7 29.83 1010 10 16 0.02 0.51
7:51 pm 19:51 Cloudy with Nearby Thunderstorms 79 26.1 64 17.8 60 60 SE 14 22 29.93 1014 9 14 0.02 0.51
8:05 pm 20:05 Cloudy with Nearby Thunderstorms 74 23.3 66 18.9 76 76 S 18 30 29.91 1013 3 4 0.16 4.06
8:09 pm 20:09 Cloudy with Thunderstorms 74 23.3 64 17.8 71 71 SE 13 20 29.91 1013 3 5 0.18 4.57
8:48 pm 20:48 Cloudy with Nearby Thunderstorms 72 22 66 19 83 83 SSE 16 26 30.00 1016 10 16 0.20 5.08
8:51 pm 20:51 Cloudy with Nearby Thunderstorms 72 22.2 67 19.4 84 84 SE 18 30 29.99 1016 10 16 0.20 5.08
9:03 pm 21:03 Cloudy with Light Rain 72 22.2 66 18.9 82 82 SE 14 22 30.00 1016 10 16 0.00 0.03
9:23 pm 21:23 Cloudy with Heavy Rain 71 21.7 67 19.4 87 87 E 14 22 30.00 1016 5 8 0.06 1.52
9:47 pm 21:47 Mostly Cloudy with Nearby Thunderstorms 72 22 66 19 83 83 E 15 24 30.00 1016 8 13 0.08 2.03
9:51 pm 21:51 Mostly Cloudy with Nearby Thunderstorms 71 21.7 66 18.9 84 84 E 17 28 29.99 1016 6 10 0.09 2.29
10:26 pm 22:26 Cloudy with Rain 70 21.1 66 18.9 87 87 E 8 13 30.00 1016 8 13 0.10 2.54
10:51 pm 22:51 Cloudy with Rain 69 20.6 67 19.4 93 93 SSE 10 17 30.01 1016 6 10 0.14 3.56

Powered by AerisWeather